Simultaneous Nadir Overpasses (SNOs) Predictions

Prediction of SNOs between METOP-A and NOAA-19 Satellite Orbit:

Table of predicted SNOs for the next 14.0 days since TLE Epoch: 10/3/2014
Index Date (METOP-A) Time (METOP-A) Lat,Lon (METOP-A) SZA (METOP-A ) Date (NOAA-19) Time (NOAA-19) Lat,Lon (NOAA-19) SZA (NOAA-19 ) Distance(km) Time Diff (sec)
1 10/09/2014 17:41:03 74.79, -88.54 81.14 10/09/2014 17:39:55 74.80, -90.98 81.16 71.27 68
2 10/09/2014 18:31:54 -74.32, 77.54 99.33 10/09/2014 18:30:41 -74.35, 77.54 99.30 2.97 73
3 10/09/2014 19:22:34 74.33,-115.10 80.70 10/09/2014 19:21:48 74.30,-115.12 80.67 3.45 46
4 10/09/2014 20:13:16 -74.30, 52.14 99.32 10/09/2014 20:12:43 -74.28, 52.20 99.34 2.72 33
5 10/09/2014 21:03:57 74.26,-140.62 80.66 10/09/2014 21:03:51 74.28,-140.59 80.68 2.68 6
6 10/09/2014 21:54:38 -74.28, 26.75 99.32 10/09/2014 21:54:46 -74.26, 26.74 99.33 1.66 8
7 10/09/2014 22:45:19 74.24,-166.02 80.67 10/09/2014 22:45:54 74.26,-166.05 80.69 3.01 35
8 10/09/2014 23:36:00 -74.25, 1.35 99.31 10/09/2014 23:36:49 -74.24, 1.27 99.32 2.69 49
9 10/10/2014 00:26:42 74.17, 168.46 80.62 10/10/2014 00:27:56 74.20, 168.61 80.65 5.58 74
10 10/10/2014 01:17:34 -73.64, -25.48 99.88 10/10/2014 01:18:41 -73.69, -22.84 99.85 82.70 67




NCC Satellite Simultaneous Nadir Overpasses (SNOs) Prediction Service
